FW5442 Weather Reports


time (UTC)temp
F
wind
direction
speed
knots
gust
knots
rain 1hr
in
rain 24hr
in
rain mn
in
humidity
%
barometer
mb
20260509002058 70 144 5.2 10.4 0.00 0.00 0.00 67 1010.1
20260509001553 70 150 5.2 12.2 0.00 0.00 0.00 66 1010.1
20260509001052 71 167 4.3 12.2 0.00 0.00 0.00 65 1010.0
20260509000559 70 143 3.5 9.6 0.00 0.00 0.00 65 1010.1
20260509000104 71 163 5.2 10.4 0.00 0.00 0.00 64 1010.1
20260508235555 71 162 3.5 11.3 0.00 0.00 0.00 63 1010.3
20260508235055 71 154 2.6 12.2 0.00 0.00 0.00 63 1010.2
20260508234558 72 136 4.3 12.2 0.00 0.00 0.00 63 1010.3
20260508234053 72 152 7.8 12.2 0.00 0.00 0.00 63 1010.4
20260508233556 72 155 6.1 14.8 0.00 0.00 0.00 62 1010.3
20260508233054 72 167 7.0 14.8 0.00 0.00 0.00 62 1010.2
20260508232555 72 174 4.3 13.0 0.00 0.00 0.00 62 1010.4
20260508232055 73 189 6.1 13.0 0.00 0.00 0.00 61 1010.3
20260508231558 73 166 8.7 14.8 0.00 0.00 0.00 60 1010.2
20260508231056 73 162 7.0 14.8 0.00 0.00 0.00 61 1010.4
20260508230557 72 163 8.7 13.0 0.00 0.00 0.00 60 1010.3
20260508230105 73 160 6.1 13.0 0.00 0.00 0.00 59 1010.4
20260508225556 73 245 6.1 14.8 0.00 0.00 0.00 59 1010.4
20260508225052 73 167 9.6 14.8 0.00 0.00 0.00 58 1010.5
20260508224557 73 158 4.3 13.0 0.00 0.00 0.00 57 1010.4
20260508224052 73 155 7.8 13.0 0.00 0.00 0.00 57 1010.4
20260508223552 73 113 7.8 13.0 0.00 0.00 0.00 56 1010.4
20260508223055 73 156 7.0 13.9 0.00 0.00 0.00 55 1010.3
20260508222554 74 166 6.1 13.9 0.00 0.00 0.00 55 1010.4
20260508222051 73 138 7.0 15.6 0.00 0.00 0.00 55 1010.4
20260508221559 74 143 7.0 15.6 0.00 0.00 0.00 56 1010.4
20260508221052 74 198 6.1 15.6 0.00 0.00 0.00 54 1010.6
20260508220555 74 149 7.8 13.9 0.00 0.00 0.00 53 1010.5
20260508220055 74 160 8.7 13.9 0.00 0.00 0.00 52 1010.4
20260508215552 74 176 6.1 13.9 0.00 0.00 0.00 53 1010.4
20260508215056 74 150 5.2 14.8 0.00 0.00 0.00 53 1010.4
20260508214611 74 139 4.3 14.8 0.00 0.00 0.00 54 1010.5
20260508214055 73 0 4.3 15.6 0.00 0.00 0.00 53 1010.5
20260508213555 73 169 6.1 15.6 0.00 0.00 0.00 52 1010.5
20260508213058 73 189 3.5 16.5 0.00 0.00 0.00 52 1010.7
20260508212554 73 172 9.6 16.5 0.00 0.00 0.00 51 1010.9
20260508212054 73 150 10.4 16.5 0.00 0.00 0.00 53 1010.8
20260508211558 74 142 7.8 15.6 0.00 0.00 0.00 52 1010.8
20260508211056 74 166 7.8 16.5 0.00 0.00 0.00 53 1011.0
20260508210556 74 139 5.2 16.5 0.00 0.00 0.00 52 1011.0
20260508210054 74 157 13.0 16.5 0.00 0.00 0.00 52 1011.2
20260508205555 74 163 10.4 15.6 0.00 0.00 0.00 52 1011.3
20260508205055 74 144 9.6 15.6 0.00 0.00 0.00 52 1011.1
20260508204602 74 130 11.3 17.4 0.00 0.00 0.00 50 1011.1
20260508204056 74 179 7.8 17.4 0.00 0.00 0.00 50 1011.3
20260508203552 74 144 9.6 18.2 0.00 0.00 0.00 51 1011.3
20260508203053 74 172 7.8 18.2 0.00 0.00 0.00 50 1011.5
20260508202555 73 124 12.2 18.2 0.00 0.00 0.00 51 1011.5
20260508202052 74 137 9.6 15.6 0.00 0.00 0.00 51 1011.5
20260508201607 74 129 7.0 17.4 0.00 0.00 0.00 50 1011.6
20260508201052 74 165 5.2 17.4 0.00 0.00 0.00 50 1011.7
20260508200552 74 174 7.8 16.5 0.00 0.00 0.00 51 1011.7
20260508200058 73 141 7.8 14.8 0.00 0.00 0.00 51 1011.8
20260508195551 74 124 8.7 17.4 0.00 0.00 0.00 49 1011.8
20260508195052 74 188 10.4 17.4 0.00 0.00 0.00 48 1011.8
20260508194621 73 174 10.4 16.5 0.00 0.00 0.00 48 1011.6
20260508194051 73 173 5.2 13.9 0.00 0.00 0.00 50 1011.7
20260508193551 73 160 5.2 13.9 0.00 0.00 0.00 52 1011.8
20260508193101 73 143 2.6 13.0 0.00 0.00 0.00 50 1011.9
20260508192555 73 165 3.5 13.9 0.00 0.00 0.00 50 1012.2
20260508192057 73 122 8.7 13.9 0.00 0.00 0.00 49 1012.2
20260508191600 73 0 5.2 13.9 0.00 0.00 0.00 49 1012.2
20260508191055 73 180 6.1 13.9 0.00 0.00 0.00 50 1012.0
20260508190557 73 157 3.5 13.0 0.00 0.00 0.00 51 1012.1
20260508190058 73 122 7.0 13.0 0.00 0.00 0.00 50 1012.2
20260508185552 72 138 2.6 13.0 0.00 0.00 0.00 53 1012.3
20260508185053 72 153 4.3 11.3 0.00 0.00 0.00 52 1012.2
20260508184603 72 171 2.6 11.3 0.00 0.00 0.00 52 1012.5
20260508184055 72 166 4.3 12.2 0.00 0.00 0.00 50 1012.4
20260508183551 72 0 5.2 12.2 0.00 0.00 0.00 48 1012.4
20260508183100 72 172 1.7 13.0 0.00 0.00 0.00 50 1012.6
20260508182559 72 138 5.2 15.6 0.00 0.00 0.00 49 1012.9
20260508182054 73 141 7.8 15.6 0.00 0.00 0.00 49 1012.9
20260508181632 72 174 4.3 13.9 0.00 0.00 0.00 50 1013.1
20260508181055 71 0 5.2 10.4 0.00 0.00 0.00 52 1013.2
20260508180559 71 0 0.9 13.0 0.00 0.00 0.00 51 1013.3
20260508175555 72 141 2.6 12.2 0.00 0.00 0.00 51 1013.2
20260508175057 72 181 4.3 12.2 0.00 0.00 0.00 49 1013.4
20260508174603 71 0 0.9 13.9 0.00 0.00 0.00 51 1013.5
20260508174056 71 113 3.5 13.9 0.00 0.00 0.00 49 1013.5
20260508173556 71 140 6.1 12.2 0.00 0.00 0.00 48 1013.4
20260508173057 71 155 3.5 10.4 0.00 0.00 0.00 52 1013.8
20260508172555 71 186 1.7 8.7 0.00 0.00 0.00 51 1014.1
20260508172056 70 0 2.6 9.6 0.00 0.00 0.00 50 1014.2
20260508171556 70 138 1.7 9.6 0.00 0.00 0.00 52 1014.1
20260508171055 70 133 4.3 9.6 0.00 0.00 0.00 53 1014.2
20260508170555 70 147 1.7 11.3 0.00 0.00 0.00 52 1014.4
20260508170054 69 133 2.6 11.3 0.00 0.00 0.00 52 1014.4
20260508165555 69 141 2.6 11.3 0.00 0.00 0.00 53 1014.4
20260508165055 70 127 3.5 11.3 0.00 0.00 0.00 53 1014.6
20260508164554 70 138 7.0 11.3 0.00 0.00 0.00 49 1014.9
20260508164052 70 0 4.3 10.4 0.00 0.00 0.00 51 1015.2
20260508163555 70 169 0.0 10.4 0.00 0.00 0.00 53 1015.2
20260508163100 70 125 5.2 11.3 0.00 0.00 0.00 51 1015.3
20260508162557 70 135 6.1 11.3 0.00 0.00 0.00 50 1015.3
20260508162055 71 0 0.9 10.4 0.00 0.00 0.00 51 1015.4
20260508161605 70 0 1.7 10.4 0.00 0.00 0.00 51 1015.3
20260508161055 70 167 1.7 9.6 0.00 0.00 0.00 53 1015.2
20260508160554 69 0 4.3 10.4 0.00 0.00 0.00 53 1015.1
20260508160058 69 0 2.6 10.4 0.00 0.00 0.00 53 1015.1
20260508155557 69 118 0.0 9.6 0.00 0.00 0.00 55 1015.1
20260508155056 68 131 3.5 9.6 0.00 0.00 0.00 53 1014.9
20260508154558 68 135 4.3 11.3 0.00 0.00 0.00 52 1015.0
20260508154051 68 141 4.3 11.3 0.00 0.00 0.00 53 1015.3
20260508153555 68 0 2.6 12.2 0.00 0.00 0.00 54 1015.2
20260508153056 68 98 7.0 12.2 0.00 0.00 0.00 52 1015.1
20260508152555 67 124 6.1 13.0 0.00 0.00 0.00 52 1015.1
20260508152055 67 122 7.0 13.0 0.00 0.00 0.00 54 1015.0
20260508151605 67 120 9.6 13.0 0.00 0.00 0.00 53 1015.2
20260508151055 67 125 7.0 12.2 0.00 0.00 0.00 54 1015.1
20260508150554 67 123 7.0 12.2 0.00 0.00 0.00 58 1015.1
20260508150054 66 116 6.1 12.2 0.00 0.00 0.00 59 1015.1
20260508145552 66 117 8.7 12.2 0.00 0.00 0.00 59 1015.3
20260508145054 66 120 8.7 11.3 0.00 0.00 0.00 61 1015.2
20260508144553 66 95 6.1 12.2 0.00 0.00 0.00 61 1015.2
20260508144052 65 113 6.1 12.2 0.00 0.00 0.00 62 1015.2
20260508143553 65 122 4.3 12.2 0.00 0.00 0.00 63 1015.3
20260508143055 64 117 5.2 9.6 0.00 0.00 0.00 67 1015.3
20260508142552 64 0 5.2 9.6 0.00 0.00 0.00 65 1015.5
20260508142051 64 0 5.2 10.4 0.00 0.00 0.00 65 1015.7
20260508141600 64 129 8.7 11.3 0.00 0.00 0.00 66 1015.9
20260508141052 63 117 7.0 11.3 0.00 0.00 0.00 65 1015.8
20260508140557 63 110 4.3 9.6 0.00 0.00 0.00 68 1016.0
20260508140054 63 117 6.1 8.7 0.00 0.00 0.00 67 1016.3
20260508135555 62 122 5.2 8.7 0.00 0.00 0.00 69 1016.2
20260508135052 62 124 6.1 8.7 0.00 0.00 0.00 70 1016.1
20260508134559 62 110 5.2 8.7 0.00 0.00 0.00 70 1016.1
20260508134059 62 0 0.0 8.7 0.00 0.00 0.00 72 1016.2
20260508133555 62 0 5.2 8.7 0.00 0.00 0.00 72 1016.2
20260508133105 61 123 0.9 8.7 0.00 0.00 0.00 74 1016.2
20260508132554 61 0 4.3 8.7 0.00 0.00 0.00 73 1016.3
20260508132055 61 120 5.2 7.8 0.00 0.00 0.00 73 1016.2
20260508131607 60 101 4.3 6.1 0.00 0.00 0.00 76 1016.3
20260508131052 60 109 4.3 6.1 0.00 0.00 0.00 76 1016.2
20260508130551 59 107 3.5 6.1 0.00 0.00 0.00 78 1016.4
20260508125555 58 70 4.3 7.0 0.00 0.00 0.00 79 1016.2
20260508125051 58 96 4.3 7.0 0.00 0.00 0.00 79 1016.0
20260508124558 58 76 0.0 0.0 0.00 0.00 0.00 81 1016.1
20260508124055 58 0 0.0 0.0 0.00 0.00 0.00 81 1016.2
20260508123555 57 0 0.0 0.0 0.00 0.00 0.00 82 1016.1
20260508123106 57 0 0.0 3.5 0.00 0.00 0.00 84 1016.1
20260508122555 56 0 0.0 3.5 0.00 0.00 0.00 84 1016.1
20260508122056 56 60 0.9 3.5 0.00 0.00 0.00 84 1016.3
20260508121557 55 0 0.0 3.5 0.00 0.00 0.00 84 1016.0
20260508121054 54 0 0.0 3.5 0.00 0.00 0.00 84 1016.0
20260508120554 54 81 0.0 3.5 0.00 0.00 0.00 82 1016.0
20260508120057 53 0 0.9 3.5 0.00 0.00 0.00 80 1016.1
20260508115552 53 0 1.7 3.5 0.00 0.00 0.00 77 1015.9
20260508115055 52 0 0.0 0.0 0.00 0.00 0.00 71 1016.0
20260508114558 52 0 0.0 0.0 0.00 0.00 0.00 68 1015.9
20260508114051 51 0 0.0 0.0 0.00 0.00 0.00 67 1015.8
20260508113555 51 0 0.0 0.0 0.00 0.00 0.00 63 1015.7
20260508113056 51 0 0.0 0.0 0.00 0.00 0.00 62 1015.7
20260508112551 51 0 0.0 0.0 0.00 0.00 0.00 63 1015.7
20260508112051 51 0 0.0 0.0 0.00 0.00 0.00 63 1015.7
20260508111606 51 0 0.0 0.0 0.00 0.00 0.00 64 1015.8
20260508111055 50 0 0.0 0.0 0.00 0.00 0.00 66 1015.7
20260508110554 50 0 0.0 0.0 0.00 0.00 0.00 69 1015.7
20260508105555 51 0 0.0 0.0 0.00 0.00 0.00 71 1015.5
20260508105055 51 0 0.0 0.0 0.00 0.00 0.00 70 1015.5
20260508104557 51 0 0.0 0.0 0.00 0.00 0.00 69 1015.5
20260508104055 51 0 0.0 0.0 0.00 0.00 0.00 69 1015.7
20260508103555 51 0 0.0 0.0 0.00 0.00 0.00 69 1015.5
20260508103054 52 0 0.0 0.0 0.00 0.00 0.00 67 1015.6
20260508102552 52 0 0.0 0.0 0.00 0.00 0.00 64 1015.6
20260508102051 51 0 0.0 0.0 0.00 0.00 0.00 61 1015.8
20260508101557 51 0 0.0 0.0 0.00 0.00 0.00 59 1015.5
20260508101051 51 0 0.0 0.0 0.00 0.00 0.00 60 1015.5
20260508100555 51 0 0.0 0.0 0.00 0.00 0.00 61 1015.6
20260508100057 51 0 0.0 0.0 0.00 0.00 0.00 63 1015.5
20260508095555 51 0 0.0 0.0 0.00 0.00 0.00 64 1015.6
20260508095057 51 0 0.0 0.0 0.00 0.00 0.00 65 1015.7
20260508094610 51 0 0.0 0.0 0.00 0.00 0.00 67 1015.7
20260508094057 51 0 0.0 0.0 0.00 0.00 0.00 67 1015.4
20260508093555 51 0 0.0 0.0 0.00 0.00 0.00 68 1015.3
20260508093101 51 0 0.0 0.0 0.00 0.00 0.00 70 1015.2
20260508092553 51 0 0.0 0.0 0.00 0.00 0.00 70 1015.2
20260508092054 51 0 0.0 0.0 0.00 0.00 0.00 72 1015.1
20260508091604 52 0 0.0 0.0 0.00 0.00 0.00 71 1015.1
20260508091052 52 0 0.0 0.0 0.00 0.00 0.00 74 1015.2
20260508090552 52 0 0.0 0.0 0.00 0.00 0.00 76 1015.1
20260508090056 52 0 0.0 0.0 0.00 0.00 0.00 78 1015.0
20260508085552 53 0 0.0 0.0 0.00 0.00 0.00 80 1014.9
20260508085054 53 0 0.0 0.0 0.00 0.00 0.00 80 1015.0
20260508084551 53 0 0.0 0.0 0.00 0.00 0.00 79 1014.8
20260508084052 53 0 0.0 0.0 0.00 0.00 0.00 76 1015.0
20260508083553 52 0 0.0 0.0 0.00 0.00 0.00 77 1014.9
20260508083053 53 0 0.0 0.0 0.00 0.00 0.00 78 1015.0
20260508082554 53 0 0.0 0.0 0.00 0.00 0.00 78 1014.7
20260508082052 53 0 0.0 0.0 0.00 0.00 0.00 78 1014.7
20260508081619 53 0 0.0 0.0 0.00 0.00 0.00 77 1014.9
20260508081054 53 0 0.0 0.0 0.00 0.00 0.00 72 1014.9
20260508080555 53 0 0.0 0.0 0.00 0.00 0.00 72 1015.0
20260508080053 53 0 0.0 0.0 0.00 0.00 0.00 72 1015.1
20260508075552 53 0 0.0 0.0 0.00 0.00 0.00 72 1015.1
20260508075054 53 0 0.0 0.0 0.00 0.00 0.00 73 1015.2
20260508074553 53 0 0.0 0.0 0.00 0.00 0.00 75 1015.0
20260508074052 53 0 0.0 0.0 0.00 0.00 0.00 75 1014.9
20260508073553 53 0 0.0 0.0 0.00 0.00 0.00 74 1014.8
20260508073055 53 0 0.0 0.0 0.00 0.00 0.00 74 1014.8
20260508072555 53 0 0.0 0.0 0.00 0.00 0.00 74 1014.9
20260508072052 53 0 0.0 0.0 0.00 0.00 0.00 75 1015.0
20260508071557 53 0 0.0 0.0 0.00 0.00 0.00 77 1015.0
20260508071052 53 0 0.0 0.0 0.00 0.00 0.00 78 1015.3
20260508070558 53 0 0.0 0.0 0.00 0.00 0.00 80 1015.4
20260508070107 53 0 0.0 0.0 0.00 0.00 0.00 80 1015.3
20260508065553 53 0 0.0 0.0 0.00 0.00 0.00 82 1015.5
20260508065056 54 0 0.0 0.0 0.00 0.00 0.00 83 1015.4
20260508064557 55 0 0.0 0.0 0.00 0.00 0.00 83 1015.4
20260508064052 55 0 0.0 0.0 0.00 0.00 0.00 83 1015.5
20260508063553 55 0 0.0 0.0 0.00 0.00 0.00 83 1015.5
20260508063058 55 0 0.0 0.0 0.00 0.00 0.00 83 1015.6
20260508062552 55 0 0.0 0.0 0.00 0.00 0.00 83 1015.3
20260508062052 55 0 0.0 0.0 0.00 0.00 0.00 83 1015.5
20260508061557 55 0 0.0 0.0 0.00 0.00 0.00 83 1015.5
20260508061054 55 0 0.0 0.0 0.00 0.00 0.00 83 1015.5
20260508060553 56 0 0.0 0.0 0.00 0.00 0.00 83 1015.5
20260508060100 56 0 0.0 0.0 0.00 0.00 0.00 83 1015.5
20260508055554 56 0 0.0 0.0 0.00 0.00 0.00 83 1015.5
20260508055052 56 0 0.0 0.0 0.00 0.00 0.00 83 1015.3
20260508054558 56 0 0.0 0.0 0.00 0.00 0.00 83 1015.4
20260508054055 56 0 0.0 0.0 0.00 0.00 0.00 83 1015.6
20260508053557 56 0 0.0 0.0 0.00 0.00 0.00 83 1015.9
20260508053059 56 0 0.0 0.0 0.00 0.00 0.00 83 1015.6
20260508052557 56 0 0.0 0.0 0.00 0.00 0.00 83 1015.7
20260508052057 56 0 0.0 0.0 0.00 0.00 0.00 83 1015.5
20260508051559 56 0 0.0 0.0 0.00 0.00 0.00 83 1015.5
20260508051056 56 0 0.0 0.0 0.00 0.00 0.00 83 1015.5
20260508050600 56 0 0.0 0.0 0.00 0.00 0.00 83 1015.8
20260508050057 56 0 0.0 0.0 0.00 0.00 0.00 83 1015.8
20260508045556 56 0 0.0 0.0 0.00 0.32 0.00 83 1015.8
20260508045059 56 0 0.0 0.0 0.00 0.32 0.00 83 1015.6
20260508044606 57 0 0.0 0.0 0.00 0.32 0.00 83 1015.7
20260508044100 57 0 0.0 0.0 0.00 0.32 0.00 83 1015.6
20260508043600 57 0 0.0 0.0 0.00 0.32 0.00 83 1015.5
20260508043111 57 0 0.0 0.0 0.00 0.32 0.00 83 1015.6
20260508042600 57 0 0.0 0.0 0.00 0.32 0.00 82 1015.5
20260508042056 57 0 0.0 0.0 0.00 0.32 0.00 82 1015.6
20260508041556 57 0 0.0 0.0 0.00 0.32 0.00 82 1015.6
20260508041057 57 0 0.0 0.0 0.00 0.32 0.00 81 1015.7
20260508040558 58 0 0.0 0.0 0.00 0.32 0.00 81 1015.7
20260508040101 58 0 0.0 0.0 0.00 0.32 0.00 79 1015.7
20260508035556 58 0 0.0 0.0 0.00 0.32 0.00 77 1015.7
20260508035056 58 0 0.0 0.0 0.00 0.32 0.00 75 1015.7
20260508034558 58 0 0.0 0.0 0.00 0.32 0.00 75 1015.9
20260508034057 58 0 0.0 0.0 0.00 0.32 0.00 75 1015.9
20260508033556 59 0 0.0 0.0 0.00 0.32 0.00 75 1015.8
20260508033055 58 0 0.0 0.0 0.00 0.32 0.00 75 1016.1
20260508032559 58 0 0.0 0.0 0.00 0.32 0.00 75 1016.0
20260508032055 59 0 0.0 0.0 0.00 0.32 0.00 74 1016.1
20260508031556 59 0 0.0 0.0 0.00 0.32 0.00 75 1016.1
20260508031057 59 0 0.0 0.0 0.00 0.32 0.00 75 1016.0
20260508030558 59 0 0.0 0.0 0.00 0.32 0.00 74 1016.0
20260508025556 59 0 0.0 0.0 0.00 0.32 0.00 72 1016.0
20260508025056 59 0 0.0 0.0 0.00 0.32 0.00 72 1015.9
20260508024559 59 0 0.0 0.0 0.00 0.32 0.00 76 1016.1
20260508024056 60 0 0.0 0.0 0.00 0.32 0.00 77 1016.0
20260508023556 60 0 0.0 0.0 0.00 0.32 0.00 74 1016.0
20260508023108 60 0 0.0 0.0 0.00 0.32 0.00 70 1015.9
20260508022553 60 0 0.0 0.0 0.00 0.32 0.00 70 1015.8
20260508022052 60 0 0.0 0.0 0.00 0.32 0.00 71 1015.6
20260508021552 60 0 0.0 0.0 0.00 0.32 0.00 73 1015.7
20260508021052 60 0 0.0 0.0 0.00 0.32 0.00 70 1015.5
20260508020552 61 0 0.0 0.0 0.00 0.32 0.00 71 1015.7
20260508020053 61 0 0.0 0.0 0.00 0.32 0.00 68 1015.6
20260508015555 61 0 0.0 0.0 0.00 0.32 0.00 70 1015.6
20260508015052 60 0 0.0 0.0 0.00 0.32 0.00 71 1015.5
20260508014553 60 0 0.0 0.0 0.00 0.32 0.00 71 1015.5
20260508014053 60 0 0.0 0.0 0.00 0.32 0.00 72 1015.4
20260508013553 60 0 0.0 0.0 0.00 0.32 0.00 72 1015.3
20260508013051 60 0 0.0 0.0 0.00 0.32 0.00 72 1015.2
20260508012552 60 0 0.0 0.0 0.00 0.32 0.00 72 1015.2
20260508012052 61 0 0.0 0.0 0.00 0.32 0.00 72 1015.1
20260508011555 61 0 0.0 0.0 0.00 0.32 0.00 71 1015.1
20260508011056 61 0 0.0 0.0 0.00 0.32 0.00 75 1015.2
20260508010552 62 0 0.0 0.0 0.00 0.32 0.00 72 1015.2
20260508010053 62 0 0.0 0.0 0.00 0.32 0.00 71 1015.2
20260508005552 62 0 0.0 0.0 0.00 0.32 0.00 65 1015.0
20260508005052 63 0 0.0 0.0 0.00 0.32 0.00 65 1015.1
20260508004555 63 0 0.0 0.0 0.00 0.32 0.00 64 1015.0
20260508004052 63 0 0.0 0.0 0.00 0.32 0.00 63 1014.9
20260508003552 64 0 0.0 0.0 0.00 0.32 0.00 62 1015.1
20260508003059 64 0 0.0 0.0 0.00 0.32 0.00 61 1015.0
20260508002552 64 0 0.0 0.0 0.00 0.32 0.00 61 1015.0